Abha, Saudi Arabia

4:16 PM +03 on September 18, 2019 (GMT +0300)
Abha

Weather History for OEAB - May, 2019

Change the Weather History Date:

Friday, May 3, 2019

  Actual Average Record
Temperature  
Mean Temperature 73 °F -  
Max Temperature 84 °F 80 °F 87 °F (2016)
Min Temperature 62 °F 58 °F 53 °F (2011)
Cooling Degree Days 8    
Growing Degree Days 23 (Base 50)    
Moisture  
Dew Point 38 °F    
Average Humidity 29    
Maximum Humidity 45    
Minimum Humidity 14    
Precipitation  
Precipitation 0.00 in - - ()
Sea Level Pressure  
Sea Level Pressure 30.25 in    
Wind  
Wind Speed 5 mph ()    
Max Wind Speed 20 mph    
Max Gust Speed -    
Visibility 6.2 miles    
Events      
Averages and records for this station are not official NWS values.
T = Trace of Precipitation, MM = Missing Value Source: Averaged Metar Reports

Daily Weather History Graph

Daily Weather History Graph

Search for Another Location

Airport or City:

Astronomy

May. 03, 2019 Rise Set
Actual Time 5:41 AM +03 6:31 PM +03
Civil Twilight 5:18 AM +03 6:54 PM +03
Nautical Twilight 4:51 AM +03 7:20 PM +03
Astronomical Twilight 4:24 AM +03 7:48 PM +03
Moon 4:45 AM +03 (5/3) 5:18 PM +03 (5/3)
Length of Visible Light 13h 35m
Length of Day
12h 49m
Waning Crescent, 3% of the Moon is Illuminated
May 3
Waning Crescent
May 5
New
May 12
First Quarter
May 19
Full
May 26
Last Quarter

Hourly Weather History & Observations

Time (+03) Temp. Dew Point Humidity Pressure Visibility Wind Dir Wind Speed Gust Speed Precip Events Conditions
12:00 AM 68.0 °F 39.2 °F 35% 30.27 in - South 5.8 mph - N/A   Clear
1:00 AM 68.0 °F 41.0 °F 37% 30.27 in - Calm Calm - N/A   Clear
2:00 AM 66.2 °F 39.2 °F 37% 30.27 in - Calm Calm - N/A   Clear
3:00 AM 66.2 °F 39.2 °F 37% 30.24 in - Calm Calm - N/A   Clear
4:00 AM 66.2 °F 42.8 °F 43% 30.24 in - SSE 4.6 mph - N/A   Clear
5:00 AM 62.6 °F 41.0 °F 45% 30.24 in - South 4.6 mph - N/A   Clear
6:00 AM 64.4 °F 41.0 °F 42% 30.27 in - SSW 4.6 mph - N/A   Clear
7:00 AM 68.0 °F 41.0 °F 37% 30.27 in - Calm Calm - N/A   Clear
8:00 AM 73.4 °F 39.2 °F 29% 30.30 in - Calm Calm - N/A   Clear
9:00 AM 80.6 °F 41.0 °F 24% 30.30 in - Calm Calm - N/A   Clear
11:00 AM 82.4 °F 35.6 °F 19% 30.30 in 6.2 mi South 11.5 mph - N/A   Scattered Clouds
12:00 PM 84.2 °F 32.0 °F 15% 30.30 in 6.2 mi South 9.2 mph - N/A   Scattered Clouds
1:00 PM 84.2 °F 32.0 °F 15% 30.27 in 6.2 mi South 11.5 mph - N/A   Partly Cloudy
2:00 PM 84.2 °F 30.2 °F 14% 30.24 in 6.2 mi South 19.6 mph - N/A   Partly Cloudy
3:00 PM 84.2 °F 33.8 °F 16% 30.21 in 6.2 mi SSW 6.9 mph - N/A   Partly Cloudy
4:00 PM 82.4 °F 33.8 °F 17% 30.18 in 6.2 mi SSW 16.1 mph - N/A   Partly Cloudy
5:00 PM 82.4 °F 35.6 °F 19% 30.18 in 6.2 mi SSW 15.0 mph - N/A   Partly Cloudy
6:00 PM 78.8 °F 35.6 °F 21% 30.18 in - SW 18.4 mph - N/A   Clear
7:00 PM 75.2 °F 39.2 °F 27% 30.21 in - SW 16.1 mph - N/A   Clear
8:00 PM 73.4 °F 39.2 °F 29% 30.21 in - SSW 13.8 mph - N/A   Clear
9:00 PM 71.6 °F 42.8 °F 35% 30.24 in 6.2 mi SSW 4.6 mph - N/A   Partly Cloudy
10:00 PM 69.8 °F 44.6 °F 40% 30.27 in 6.2 mi Calm Calm - N/A   Scattered Clouds